IBB215 GCHI-GCLP

Flight info

Callsign IBB215
Flight time 0h 42m
Altitude 13000
Route YELBE
Aircraft AT76/M-SDFGIRY/S

Departure

Time 2026-04-21 17:36
Airport El Hierro Airport (GCHI)

Arrival

Time 2026-04-21 18:19
Airport Gran Canaria Airport (GCLP)
Time Latitude Longitude Altitude Speed Heading
2026-04-21 17:19 27.81327 -17.88523 97 ft 0 kts 336°
2026-04-21 17:21 27.81326 -17.88523 97 ft 0 kts 336°
2026-04-21 17:25 27.81325 -17.88523 97 ft 0 kts 336°
2026-04-21 17:27 27.81325 -17.88522 95 ft 0 kts 336°
2026-04-21 17:28 27.81324 -17.88522 95 ft 0 kts 336°
2026-04-21 17:32 27.81329 -17.88525 95 ft 6 kts 337°
2026-04-21 17:32 27.81353 -17.88543 97 ft 3 kts 301°
2026-04-21 17:32 27.81356 -17.88565 96 ft 3 kts 277°
2026-04-21 17:33 27.81349 -17.88586 96 ft 4 kts 241°
2026-04-21 17:33 27.81324 -17.88609 96 ft 3 kts 176°
2026-04-21 17:33 27.81280 -17.88583 98 ft 11 kts 154°
2026-04-21 17:33 27.81198 -17.88536 99 ft 15 kts 153°
2026-04-21 17:34 27.81101 -17.88480 102 ft 17 kts 153°
2026-04-21 17:34 27.81008 -17.88446 103 ft 13 kts 179°
2026-04-21 17:34 27.80984 -17.88410 103 ft 1 kts 25°
2026-04-21 17:34 27.80985 -17.88411 103 ft 0 kts
2026-04-21 17:35 27.80993 -17.88413 103 ft 4 kts 338°
2026-04-21 17:35 27.81123 -17.88491 101 ft 49 kts 334°
2026-04-21 17:35 27.81606 -17.88765 90 ft 104 kts 334°
2026-04-21 17:35 27.82330 -17.89191 329 ft 124 kts 336°
2026-04-21 17:36 27.83103 -17.89824 491 ft 151 kts 318°
2026-04-21 17:36 27.83842 -17.90607 1058 ft 145 kts 324°
2026-04-21 17:36 27.84660 -17.91258 1684 ft 143 kts 327°
2026-04-21 17:36 27.85562 -17.91646 2120 ft 143 kts
2026-04-21 17:37 27.86377 -17.90991 2451 ft 160 kts 60°
2026-04-21 17:37 27.86410 -17.89719 2818 ft 170 kts 105°
2026-04-21 17:37 27.86018 -17.88449 3219 ft 169 kts 106°
2026-04-21 17:37 27.85622 -17.87210 3563 ft 171 kts 109°
2026-04-21 17:38 27.85208 -17.85952 3942 ft 171 kts 106°
2026-04-21 17:38 27.84865 -17.84665 4324 ft 171 kts 102°
2026-04-21 17:38 27.84616 -17.83347 4671 ft 172 kts 96°
2026-04-21 17:38 27.84465 -17.82004 5008 ft 172 kts 91°
2026-04-21 17:39 27.84394 -17.80656 5355 ft 172 kts 89°
2026-04-21 17:39 27.84376 -17.79296 5678 ft 174 kts 88°
2026-04-21 17:39 27.84369 -17.77942 6041 ft 175 kts 88°
2026-04-21 17:39 27.84368 -17.76554 6334 ft 179 kts 88°
2026-04-21 17:40 27.84359 -17.75148 6643 ft 180 kts 89°
2026-04-21 17:40 27.84341 -17.73732 6928 ft 182 kts 89°
2026-04-21 17:40 27.84316 -17.72305 7222 ft 183 kts 90°
2026-04-21 17:40 27.84290 -17.70867 7514 ft 185 kts 90°
2026-04-21 17:41 27.84267 -17.69415 7769 ft 188 kts 91°
2026-04-21 17:41 27.84231 -17.67932 8077 ft 189 kts 92°
2026-04-21 17:41 27.84192 -17.66440 8383 ft 190 kts 92°
2026-04-21 17:41 27.84159 -17.64943 8688 ft 192 kts 92°
2026-04-21 17:42 27.84131 -17.63436 8999 ft 192 kts 92°
2026-04-21 17:42 27.84105 -17.61922 9300 ft 193 kts 92°
2026-04-21 17:42 27.84076 -17.60385 9557 ft 197 kts 92°
2026-04-21 17:42 27.84044 -17.58837 9838 ft 197 kts 93°
2026-04-21 17:43 27.84001 -17.57303 10055 ft 198 kts 94°
2026-04-21 17:43 27.83960 -17.55740 10304 ft 199 kts 93°
2026-04-21 17:43 27.83926 -17.54176 10546 ft 199 kts 92°
2026-04-21 17:43 27.83897 -17.52611 10787 ft 199 kts 93°
2026-04-21 17:44 27.83867 -17.51041 11022 ft 200 kts 93°
2026-04-21 17:44 27.83835 -17.49440 11132 ft 209 kts 92°
2026-04-21 17:44 27.83803 -17.47767 11251 ft 216 kts 93°
2026-04-21 17:44 27.83769 -17.46058 11413 ft 219 kts 93°
2026-04-21 17:45 27.83737 -17.44323 11598 ft 222 kts 92°
2026-04-21 17:45 27.83703 -17.42597 11798 ft 223 kts 92°
2026-04-21 17:45 27.83668 -17.40840 12004 ft 223 kts 93°
2026-04-21 17:45 27.83630 -17.39084 12219 ft 223 kts 93°
2026-04-21 17:46 27.83490 -17.37341 12423 ft 223 kts 100°
2026-04-21 17:46 27.83238 -17.35612 12636 ft 223 kts 102°
2026-04-21 17:46 27.82958 -17.33899 12930 ft 219 kts 102°
2026-04-21 17:46 27.82684 -17.32187 13021 ft 225 kts 102°
2026-04-21 17:47 27.82402 -17.30408 13059 ft 234 kts 101°
2026-04-21 17:47 27.82128 -17.28559 13078 ft 242 kts 101°
2026-04-21 17:47 27.81876 -17.26813 13091 ft 248 kts 101°
2026-04-21 17:47 27.81598 -17.24867 13093 ft 254 kts 101°
2026-04-21 17:48 27.81407 -17.23524 13092 ft 257 kts 101°
2026-04-21 17:48 27.81026 -17.20851 13093 ft 263 kts 101°
2026-04-21 17:48 27.80732 -17.18798 13094 ft 266 kts 101°
2026-04-21 17:48 27.80435 -17.16725 13091 ft 269 kts 101°
2026-04-21 17:49 27.80135 -17.14635 13091 ft 271 kts 101°
2026-04-21 17:49 27.79835 -17.12533 13089 ft 272 kts 101°
2026-04-21 17:49 27.79530 -17.10418 13088 ft 273 kts 101°
2026-04-21 17:49 27.79225 -17.08299 13087 ft 274 kts 101°
2026-04-21 17:50 27.78919 -17.06170 13089 ft 275 kts 101°
2026-04-21 17:50 27.78612 -17.04037 13085 ft 275 kts 101°
2026-04-21 17:50 27.78302 -17.01893 13086 ft 276 kts 100°
2026-04-21 17:50 27.77996 -16.99779 13084 ft 276 kts 101°
2026-04-21 17:51 27.77685 -16.97637 13082 ft 276 kts 101°
2026-04-21 17:51 27.77374 -16.95491 13081 ft 277 kts 100°
2026-04-21 17:51 27.77063 -16.93346 13078 ft 277 kts 101°
2026-04-21 17:51 27.76752 -16.91199 13078 ft 277 kts 101°
2026-04-21 17:52 27.76439 -16.89051 13080 ft 277 kts 100°
2026-04-21 17:52 27.76126 -16.86905 13075 ft 277 kts 100°
2026-04-21 17:52 27.75814 -16.84759 13076 ft 277 kts 100°
2026-04-21 17:52 27.75501 -16.82612 13075 ft 277 kts 100°
2026-04-21 17:53 27.75187 -16.80468 13074 ft 277 kts 100°
2026-04-21 17:53 27.74874 -16.78321 13073 ft 277 kts 100°
2026-04-21 17:53 27.74561 -16.76178 13074 ft 277 kts 100°
2026-04-21 17:53 27.74246 -16.74030 13072 ft 277 kts 100°
2026-04-21 17:54 27.73931 -16.71891 13071 ft 276 kts 101°
2026-04-21 17:54 27.73612 -16.69749 13073 ft 276 kts 101°
2026-04-21 17:54 27.73299 -16.67635 13073 ft 276 kts 100°
2026-04-21 17:54 27.72980 -16.65497 13071 ft 276 kts 101°
2026-04-21 17:55 27.72642 -16.63358 13071 ft 276 kts 101°
2026-04-21 17:55 27.72300 -16.61222 13070 ft 276 kts 101°
2026-04-21 17:55 27.71956 -16.59089 13068 ft 276 kts 101°
2026-04-21 17:55 27.71609 -16.56952 13069 ft 276 kts 101°
2026-04-21 17:56 27.71265 -16.54814 13068 ft 276 kts 101°
2026-04-21 17:56 27.70920 -16.52679 13067 ft 277 kts 101°
2026-04-21 17:56 27.70573 -16.50539 13065 ft 277 kts 101°
2026-04-21 17:56 27.70224 -16.48398 13068 ft 277 kts 101°
2026-04-21 17:57 27.69883 -16.46290 13068 ft 277 kts 101°
2026-04-21 17:57 27.69534 -16.44152 13067 ft 277 kts 101°
2026-04-21 17:57 27.69187 -16.42016 13067 ft 277 kts 101°
2026-04-21 17:57 27.68837 -16.39874 13067 ft 277 kts 101°
2026-04-21 17:58 27.68489 -16.37738 13069 ft 276 kts 101°
2026-04-21 17:58 27.68143 -16.35607 13068 ft 276 kts 101°
2026-04-21 17:58 27.67796 -16.33475 13069 ft 276 kts 101°
2026-04-21 17:58 27.67444 -16.31341 13077 ft 276 kts 101°
2026-04-21 17:59 27.67099 -16.29234 13076 ft 276 kts 101°
2026-04-21 17:59 27.66751 -16.27102 13073 ft 276 kts 101°
2026-04-21 17:59 27.66400 -16.24966 13066 ft 276 kts 101°
2026-04-21 17:59 27.66050 -16.22834 13076 ft 276 kts 101°
2026-04-21 18:00 27.65700 -16.20706 13068 ft 276 kts 101°
2026-04-21 18:00 27.65348 -16.18576 13070 ft 276 kts 101°
2026-04-21 18:00 27.64999 -16.16445 13083 ft 276 kts 101°
2026-04-21 18:00 27.64649 -16.14315 13076 ft 276 kts 101°
2026-04-21 18:01 27.64296 -16.12183 13082 ft 276 kts 101°
2026-04-21 18:01 27.63948 -16.10077 13084 ft 276 kts 101°
2026-04-21 18:01 27.63597 -16.07961 13072 ft 265 kts 102°
2026-04-21 18:01 27.63264 -16.06042 12949 ft 238 kts 102°
2026-04-21 18:02 27.62955 -16.04263 12629 ft 225 kts 102°
2026-04-21 18:02 27.62669 -16.02566 12330 ft 215 kts 102°
2026-04-21 18:02 27.62401 -16.00930 12026 ft 208 kts 101°
2026-04-21 18:02 27.62143 -15.99347 11733 ft 208 kts 101°
2026-04-21 18:03 27.61880 -15.97747 11441 ft 207 kts 102°
2026-04-21 18:03 27.61615 -15.96156 11155 ft 206 kts 102°
2026-04-21 18:03 27.61352 -15.94572 10870 ft 205 kts 102°
2026-04-21 18:03 27.61087 -15.92993 10579 ft 204 kts 102°
2026-04-21 18:04 27.60826 -15.91427 10294 ft 204 kts 102°
2026-04-21 18:04 27.60564 -15.89860 10023 ft 202 kts 102°
2026-04-21 18:04 27.60307 -15.88329 9729 ft 201 kts 102°
2026-04-21 18:04 27.60047 -15.86782 9423 ft 200 kts 102°
2026-04-21 18:05 27.59789 -15.85248 9115 ft 198 kts 102°
2026-04-21 18:05 27.59534 -15.83725 8810 ft 197 kts 101°
2026-04-21 18:05 27.59280 -15.82209 8508 ft 196 kts 101°
2026-04-21 18:05 27.59027 -15.80703 8212 ft 195 kts 101°
2026-04-21 18:06 27.58776 -15.79204 7918 ft 194 kts 101°
2026-04-21 18:06 27.58527 -15.77717 7623 ft 192 kts 101°
2026-04-21 18:06 27.58280 -15.76240 7339 ft 192 kts 101°
2026-04-21 18:06 27.58034 -15.74770 7045 ft 190 kts 100°
2026-04-21 18:07 27.57788 -15.73307 6762 ft 190 kts 100°
2026-04-21 18:07 27.57542 -15.71847 6475 ft 189 kts 100°
2026-04-21 18:07 27.57304 -15.70420 6183 ft 186 kts 100°
2026-04-21 18:07 27.57061 -15.68986 5879 ft 185 kts 99°
2026-04-21 18:08 27.56819 -15.67557 5577 ft 185 kts 99°
2026-04-21 18:08 27.56581 -15.66149 5280 ft 182 kts 99°
2026-04-21 18:08 27.56347 -15.64756 4976 ft 179 kts 99°
2026-04-21 18:08 27.56115 -15.63381 4681 ft 177 kts 99°
2026-04-21 18:09 27.55885 -15.62018 4367 ft 178 kts 99°
2026-04-21 18:09 27.55660 -15.60653 4077 ft 177 kts 99°
2026-04-21 18:09 27.55513 -15.59753 3874 ft 176 kts 100°
2026-04-21 18:09 27.55219 -15.57939 3469 ft 176 kts 100°
2026-04-21 18:10 27.55052 -15.56531 3204 ft 185 kts 84°
2026-04-21 18:10 27.55621 -15.55297 3093 ft 181 kts 38°
2026-04-21 18:10 27.56659 -15.54529 3034 ft 177 kts 27°
2026-04-21 18:10 27.57764 -15.53938 3003 ft 174 kts 20°
2026-04-21 18:11 27.58887 -15.53448 2991 ft 171 kts 18°
2026-04-21 18:11 27.60004 -15.53003 2973 ft 169 kts 17°
2026-04-21 18:11 27.61102 -15.52565 2957 ft 165 kts 18°
2026-04-21 18:11 27.62172 -15.52135 2969 ft 163 kts 18°
2026-04-21 18:12 27.63258 -15.51695 2982 ft 169 kts 18°
2026-04-21 18:12 27.64380 -15.51228 2868 ft 175 kts 18°
2026-04-21 18:12 27.65685 -15.50716 2737 ft 206 kts 17°
2026-04-21 18:12 27.67042 -15.50143 2908 ft 212 kts 20°
2026-04-21 18:13 27.68444 -15.49507 2947 ft 221 kts 20°
2026-04-21 18:13 27.69895 -15.48845 2960 ft 228 kts 21°
2026-04-21 18:13 27.71386 -15.48172 2968 ft 233 kts 20°
2026-04-21 18:13 27.72923 -15.47507 2980 ft 238 kts 20°
2026-04-21 18:14 27.76051 -15.46172 2981 ft 243 kts 19°
2026-04-21 18:14 27.77631 -15.45492 2997 ft 238 kts 19°
2026-04-21 18:14 27.78599 -15.45067 2988 ft 212 kts 20°
2026-04-21 18:15 27.79882 -15.44501 2978 ft 184 kts 20°
2026-04-21 18:15 27.81057 -15.43990 2599 ft 180 kts 20°
2026-04-21 18:15 27.82184 -15.43494 2376 ft 164 kts 20°
2026-04-21 18:15 27.83531 -15.42914 2087 ft 152 kts 19°
2026-04-21 18:16 27.84200 -15.42627 1923 ft 152 kts 19°
2026-04-21 18:16 27.85186 -15.42221 1694 ft 151 kts 18°
2026-04-21 18:16 27.86163 -15.41841 1470 ft 149 kts 19°
2026-04-21 18:16 27.87070 -15.41408 1332 ft 131 kts 23°
2026-04-21 18:17 27.87868 -15.40985 1141 ft 126 kts 23°
2026-04-21 18:17 27.88702 -15.40601 945 ft 132 kts 19°
2026-04-21 18:17 27.89573 -15.40225 706 ft 136 kts 20°
2026-04-21 18:17 27.90449 -15.39827 491 ft 135 kts 20°
2026-04-21 18:18 27.91320 -15.39461 296 ft 132 kts 18°
2026-04-21 18:18 27.92156 -15.39105 113 ft 127 kts 19°
2026-04-21 18:18 27.92932 -15.38774 56 ft 107 kts 21°
2026-04-21 18:18 27.93550 -15.38506 58 ft 69 kts 22°
2026-04-21 18:19 27.93819 -15.38432 59 ft 33 kts 359°
2026-04-21 18:19 27.94010 -15.38458 68 ft 22 kts 339°
2026-04-21 18:19 27.94068 -15.38557 72 ft 13 kts 291°
2026-04-21 18:19 27.94048 -15.38634 77 ft 11 kts 217°
2026-04-21 18:20 27.94038 -15.38670 82 ft 9 kts 291°
2026-04-21 18:20 27.94054 -15.38716 84 ft 0 kts 291°
2026-04-21 18:23 27.94054 -15.38714 81 ft 2 kts 291°
2026-04-21 18:23 27.94044 -15.38688 80 ft 4 kts 291°
2026-04-21 18:24 27.94034 -15.38660 71 ft 4 kts 291°
2026-04-21 18:24 27.94027 -15.38640 68 ft 4 kts 226°
2026-04-21 18:24 27.94016 -15.38650 73 ft 6 kts 209°
2026-04-21 18:24 27.93929 -15.38689 82 ft 16 kts 201°
2026-04-21 18:25 27.93829 -15.38733 80 ft 16 kts 201°
2026-04-21 18:25 27.93727 -15.38777 82 ft 16 kts 201°
2026-04-21 18:25 27.93626 -15.38821 80 ft 16 kts 201°
2026-04-21 18:25 27.93524 -15.38865 80 ft 16 kts 201°
2026-04-21 18:26 27.93423 -15.38909 81 ft 16 kts 201°
2026-04-21 18:26 27.93322 -15.38953 73 ft 16 kts 201°
2026-04-21 18:26 27.93221 -15.38997 75 ft 16 kts 201°
2026-04-21 18:26 27.93119 -15.39041 78 ft 16 kts 201°
2026-04-21 18:27 27.93019 -15.39085 82 ft 16 kts 201°
2026-04-21 18:27 27.92945 -15.39116 85 ft 8 kts 207°
2026-04-21 18:27 27.92915 -15.39132 83 ft 8 kts 187°
2026-04-21 18:27 27.92879 -15.39115 86 ft 0 kts 134°
2026-04-21 18:30 27.92862 -15.39075 83 ft 8 kts 105°
2026-04-21 18:30 27.92825 -15.39024 81 ft 12 kts 177°
2026-04-21 18:31 27.92749 -15.39053 82 ft 25 kts 201°
2026-04-21 18:31 27.92648 -15.39098 87 ft 12 kts 201°
2026-04-21 18:31 27.92546 -15.39142 90 ft 27 kts 201°
2026-04-21 18:31 27.92477 -15.39168 90 ft 8 kts 179°
2026-04-21 18:32 27.92437 -15.39199 92 ft 10 kts 249°
2026-04-21 18:32 27.92439 -15.39264 93 ft 14 kts 310°
2026-04-21 18:32 27.92469 -15.39309 95 ft 17 kts 319°
2026-04-21 18:32 27.92500 -15.39321 96 ft 71 kts
2026-04-21 18:34 27.92499 -15.39321 96 ft 0 kts
2026-04-21 18:37 27.92523 -15.39325 96 ft 15 kts 341°
2026-04-21 18:37 27.92558 -15.39353 97 ft 8 kts 292°
2026-04-21 18:37 27.92575 -15.39384 97 ft 14 kts 26°
2026-04-21 18:37 27.92581 -15.39379 97 ft 0 kts 41°
2026-04-21 18:38 27.92581 -15.39380 97 ft 0 kts 41°